User: anonymous
Location: Black Swamp Observatory
(41.3920°N, 84.1250°W)
Time: 04:42:34
(UTC-04:00)
Language:

MaSat-1 - Orbit

View from above orbital plane
View from above orbital plane
View from above satellite
View from above satellite

Ground track
Ground track

The orbit data is extracted from the following two-line orbital elements,

1 38081U 12006E   14293.32269543  .00297501  23857-4  23354-2 0  5248
2 38081 069.4467 015.6523 0262060 172.6595 187.8544 15.37795259142479
Epoch (UTC): 20 October 2014 07:44:40
Eccentricity: 0.0262060
inclination: 69.4467°
perigee height: 273 km
apogee height: 631 km
right ascension of ascending node: 15.6523°
argument of perigee: 172.6595°
revolutions per day: 15.37795259
mean anomaly at epoch: 187.8544°
orbit number at epoch: 14247

The dashed part of the orbit path shows where the satellite is in the earth's shadow,  

DLR